This is the latest recevied weather packets stored in our database for station/object ER1XDX-15. If no packets are shown the sender has not sent any weather packets the latest 1 day(s).
| Time | Temp. | Humidity | Pressure | Rain* | Wind** | Luminosity | Snow |
|---|---|---|---|---|---|---|---|
| 1777908903 | 23.33° C | 25% | 1003.7 hPa | - | - | - | - |
| 1777908003 | 23.33° C | 25% | 1003.7 hPa | - | - | - | - |
| 1777907103 | 23.33° C | 26% | 1003.7 hPa | - | - | - | - |
| 1777906202 | 23.33° C | 26% | 1003.7 hPa | - | - | - | - |
| 1777905302 | 23.89° C | 30% | 1003.8 hPa | - | - | - | - |
| 1777904402 | 23.89° C | 29% | 1003.8 hPa | - | - | - | - |
| 1777903502 | 23.33° C | 29% | 1003.9 hPa | - | - | - | - |
| 1777902602 | 23.33° C | 29% | 1004 hPa | - | - | - | - |
| 1777901702 | 23.33° C | 28% | 1004.1 hPa | - | - | - | - |
| 1777900802 | 23.33° C | 26% | 1004.1 hPa | - | - | - | - |
| 1777899902 | 23.33° C | 27% | 1004.2 hPa | - | - | - | - |
| 1777899002 | 23.33° C | 27% | 1004.5 hPa | - | - | - | - |
| 1777898102 | 23.33° C | 26% | 1004.6 hPa | - | - | - | - |
| 1777897202 | 22.78° C | 24% | 1004.6 hPa | - | - | - | - |
| 1777896301 | 22.78° C | 24% | 1004.8 hPa | - | - | - | - |
| 1777895401 | 22.22° C | 23% | 1004.8 hPa | - | - | - | - |
| 1777894501 | 22.22° C | 23% | 1005 hPa | - | - | - | - |
| 1777893601 | 22.22° C | 24% | 1005.2 hPa | - | - | - | - |
| 1777892701 | 22.22° C | 23% | 1005.4 hPa | - | - | - | - |
| 1777891800 | 22.22° C | 23% | 1005.5 hPa | - | - | - | - |
| 1777890900 | 22.22° C | 24% | 1005.6 hPa | - | - | - | - |
| 1777890000 | 22.22° C | 26% | 1005.6 hPa | - | - | - | - |
| 1777889100 | 22.22° C | 25% | 1005.7 hPa | - | - | - | - |
| 1777888200 | 22.22° C | 24% | 1005.8 hPa | - | - | - | - |
| 1777887300 | 21.67° C | 25% | 1005.9 hPa | - | - | - | - |
* Rain since midnight (hover to see other rain measurements)
** Current wind speed in m/s (hover to see current wind gust speed)